DELTA 1 DEB, 7046

Orbit data source: Space-Track

DELTA 1 DEB, 7046 is space debris in SSO originally from a launch on Tue, 06 Nov 1973 UTC launched from the Air Force Western Test Range (AFWTR). Debris objects in space refer to the collection of defunct objects orbiting the Earth. Examples of debris include non-operational satellites, rocket bodies, and fragments generated from explosions, collisions, or faulty payload assembly.

Loading next visibility...
Identifier
7046, 1973-086AN
Orbit
SSO
Country
Flag of USUS
Related business
Manufacturer
Unknown
Mission
Spacecraft
Bus & Motor
Unknown
Mass
Unknown
Launch date (UTC)
1973-11-06 (53 years ago)
Launch vehicle
Unknown
Launch site
Air Force Western Test Range (AFWTR)
Object type
Payload
Rocket body
Debris
Shape & HBR
Unknown shape, 0.1 m
Radar Cross Section
Medium (>0.1 m² and <1 m²)

Expand to show TLE details & history
Last TLE update: 1 day ago

TLE from 1 day ago
0 DELTA 1 DEB
1 07046U 73086AN  26263.05688149 -.00000032  00000-0  11810-3 0  9991
2 07046 102.5126 284.9053 0057362 204.5942 177.7966 12.29405519365674
Epoch: 2026-09-20T01:21Z
TLE epoch observation values (Epoch: 2026-09-20T01:21:54.560Z)
Latitude
21.86986°
Longitude
-99.61438°
Altitude
1,599.607 km
Speed
7.051 km/s
True Right ascension
18h 39m 16s
True Declination
21° 45' 50"
Sunlit
Object was in daylight at epoch
Visualization orbit readout
Latitude
Unknown
Longitude
Unknown
Altitude
Unknown
Speed
Unknown
Apparent Right ascension
Unknown
Apparent Declination
Unknown
Sunlit
N/A
Visualization observer readout
Local Sidereal Time
19:46:29
Azimuth
Unknown
Elevation
Unknown
Doppler factor
Unknown
Orbital elements
Apogee altitude
1,594.93 km
Perigee altitude
1,503.982 km
Semi-major axis
7,927.593 km
Eccentricity
0.00574
Inclination
102.5126°
RAAN
284.9053°
Arg. of periapsis
204.5942°
True anomaly
177.82169°
Mean anomaly
177.7966°
Eccentric anomaly
177.80916°
Mean motion
3.0749 °/min
Orbital period
117.08 mins
BSTAR
0.0001181
Loading maneuver chart data...
Computing Atmospheric mass density...
Loading historical data...
Loading historical data...
Loading historical data...
Loading historical data...
Loading historical data...
Loading historical data...
Loading historical data...

Documentation

Showing up to 5 results
|